EW6663 Weather Reports


time (UTC)temp
C
wind
direction
speed
KPH
gust
KPH
rain 1hr
cm
rain 24hr
cm
rain mn
cm
humidity
%
barometer
mb
20260505034524 11 355 0.0 14.5 0.00 0.00 0.00 44 1014.0
20260505033010 12 338 1.6 12.9 0.00 0.00 0.00 44 1013.9
20260505031602 12 320 4.8 11.3 0.00 0.00 0.00 43 1013.8
20260505030042 13 313 4.8 12.9 0.00 0.00 0.00 43 1013.5
20260505024613 13 328 1.6 19.3 0.00 0.00 0.00 42 1013.4
20260505023012 14 309 6.4 12.9 0.00 0.00 0.00 41 1013.2
20260505021534 15 313 3.2 16.1 0.00 0.00 0.00 41 1013.1
20260505020008 15 49 9.7 20.9 0.00 0.00 0.00 41 1013.0
20260505014538 15 337 4.8 14.5 0.00 0.00 0.00 41 1012.8
20260505013102 16 327 6.4 12.9 0.00 0.00 0.00 40 1012.8
20260505011547 16 322 9.7 17.7 0.00 0.00 0.00 39 1012.8
20260505010009 17 11 11.3 24.1 0.00 0.00 0.00 38 1012.7
20260505004555 17 19 6.4 16.1 0.00 0.00 0.00 38 1012.7
20260505003037 18 338 9.7 17.7 0.00 0.00 0.00 36 1012.6
20260505001512 17 9 6.4 12.9 0.00 0.00 0.00 39 1012.6
20260505000025 17 335 4.8 17.7 0.00 0.00 0.00 38 1012.5
20260504234559 18 336 12.9 20.9 0.00 0.00 0.00 37 1012.5
20260504233039 18 318 16.1 25.7 0.00 0.00 0.00 37 1012.4
20260504231509 18 334 16.1 29.0 0.00 0.00 0.00 38 1012.4
20260504230040 18 329 16.1 27.4 0.00 0.00 0.00 37 1012.3
20260504224512 18 5 11.3 33.8 0.00 0.00 0.00 37 1012.3
20260504223048 18 319 17.7 30.6 0.00 0.00 0.00 36 1012.2
20260504221522 18 332 19.3 29.0 0.00 0.00 0.00 34 1012.1
20260504220036 19 346 16.1 29.0 0.00 0.00 0.00 35 1012.1
20260504214537 19 329 16.1 24.1 0.00 0.00 0.00 35 1012.3
20260504213042 18 318 12.9 27.4 0.00 0.00 0.00 37 1012.3
20260504211515 18 315 16.1 24.1 0.00 0.00 0.00 36 1012.3
20260504210028 18 316 19.3 27.4 0.00 0.00 0.00 36 1012.4
20260504204553 20 323 14.5 27.4 0.00 0.00 0.00 34 1012.5
20260504203053 20 5 8.0 19.3 0.00 0.00 0.00 36 1012.6
20260504201612 20 333 6.4 12.9 0.00 0.00 0.00 37 1012.6
20260504200026 20 316 8.0 20.9 0.00 0.00 0.00 36 1012.7
20260504194552 20 317 11.3 20.9 0.00 0.00 0.00 36 1012.7
20260504193019 20 317 11.3 19.3 0.00 0.00 0.00 36 1012.9
20260504191548 20 30 0.0 6.4 0.00 0.00 0.00 38 1013.1
20260504190002 20 42 0.0 4.8 0.00 0.00 0.00 38 1013.2
20260504184549 17 41 0.0 3.2 0.00 0.00 0.00 43 1013.3
20260504183016 16 41 0.0 4.8 0.00 0.00 0.00 51 1013.4
20260504181533 16 41 1.6 6.4 0.00 0.00 0.00 47 1013.5
20260504180004 17 26 0.0 3.2 0.00 0.00 0.00 46 1013.5
20260504174530 17 21 0.0 1.6 0.00 0.00 0.00 39 1013.7
20260504171510 16 20 0.0 1.6 0.00 0.00 0.00 43 1013.7
20260504150144 13 311 14.5 25.7 0.00 0.00 0.00 47 1014.1
20260504081602 10 175 0.0 9.7 0.00 0.00 0.00 67 1011.1
20260504070138 8 164 0.0 0.0 0.00 0.00 0.00 71 1010.6
20260504044536 11 164 1.6 6.4 0.00 0.00 0.00 69 1010.5
20260504041529 12 164 0.0 0.0 0.00 0.00 0.00 73 1010.4
20260504040051 11 164 3.2 11.3 0.00 0.00 0.00 70 1010.2